Location: Byszew
(52.1813°N, 19.2693°E)
Time: 03:53:54
(UTC+00:00)

Cosmos 1844 - Pass Details

Date: 18 June 2021
Orbit: 823 x 867 km, 70.9° (Epoch: 03 August)

Event Time Altitude Azimuth Distance (km) Brightness Sun altitude
Rises 20:50:54 0° 324° (NW) 3,372 8.8 -10.4°
Reaches altitude 10° 20:53:33 10° 315° (NW) 2,437 7.4 -10.6°
Maximum altitude 20:58:26 32° 253° (WSW) 1,383 4.9 -10.9°
Drops below altitude 10° 21:03:20 10° 192° (SSW) 2,439 5.6 -11.2°
Enters shadow 21:03:35 - 191° (S) 2,522 5.7 -11.3°
